Weather History for George, South Africa

Change the Weather History Date:

Sunday, December 9, 2012

  Actual Average Record
Temperature  
Mean Temperature 67 °F -  
Max Temperature 73 °F 73 °F 80 °F (2007)
Min Temperature 61 °F 57 °F 48 °F (2011)
Cooling Degree Days 2    
Growing Degree Days 17 (Base 50)    
Moisture  
Dew Point 60 °F    
Average Humidity 78    
Maximum Humidity 94    
Minimum Humidity 57    
Precipitation  
Precipitation 0.02 in - - ()
Sea Level Pressure  
Sea Level Pressure 29.97 in    
Wind  
Wind Speed 7 mph ()    
Max Wind Speed 21 mph    
Max Gust Speed -    
Visibility 7.1 miles    
Events Rain    
Averages and records for this station are not official NWS values.
T = Trace of Precipitation, MM = Missing Value Source: Averaged Metar Reports

Daily Weather History Graph

Daily Weather History Graph

Search for Another Location

Airport:

Trip Planner

Search our weather history database for the weather conditions in past years. The results will help you decide how hot, cold, wet, or windy it might be!

Date:

Astronomy

Dec. 09, 2012 Rise Set
Actual Time 5:12 AM SAST 7:33 PM SAST
Civil Twilight 4:43 AM SAST 8:02 PM SAST
Nautical Twilight 4:07 AM SAST 8:38 PM SAST
Astronomical Twilight 3:28 AM SAST 9:17 PM SAST
Moon 1:49 AM SAST (12/9) 3:16 PM SAST (12/9)
Length of Visible Light 15h 19m
Length of Day
14h 21m
Waning Crescent, 21% of the Moon is Illuminated
Dec 9
Waning Crescent
Dec 13
New
Dec 20
First Quarter
Dec 28
Full
Jan 5
Last Quarter

Hourly Weather History & Observations

Time (SAST) Temp. Dew Point Humidity Pressure Visibility Wind Dir Wind Speed Gust Speed Precip Events Conditions
12:00 AM 64.4 °F 62.6 °F 94% 30.06 in 6.2 mi SE 4.6 mph - N/A   Mostly Cloudy
1:00 AM 64.4 °F 60.8 °F 88% 30.04 in 6.2 mi SE 4.6 mph - N/A   Mostly Cloudy
2:00 AM 64 °F 61 °F 87% 30.02 in 6 mi ESE 3.5 mph - -  
2:00 AM 64.4 °F 60.8 °F 88% 30.04 in 6.2 mi SE 2.3 mph - N/A   Mostly Cloudy
3:00 AM 64.4 °F 62.6 °F 94% 30.01 in 6.2 mi Variable 2.3 mph - N/A   Mostly Cloudy
4:00 AM 64.4 °F 60.8 °F 88% 29.98 in 6.2 mi East 3.5 mph - N/A   Mostly Cloudy
5:00 AM 62.6 °F 60.8 °F 94% 29.98 in 3.7 mi East 3.5 mph - N/A   Scattered Clouds
6:00 AM 62.6 °F 60.8 °F 94% 30.01 in 6.2 mi East 2.3 mph - N/A   Scattered Clouds
7:00 AM 64.4 °F 62.6 °F 94% 30.01 in 6.2 mi SE 4.6 mph - N/A   Scattered Clouds
8:00 AM 69 °F 61 °F 70% 29.99 in 12 mi 1.2 mph - -   Mostly Cloudy
8:00 AM 69.8 °F 60.8 °F 73% 30.01 in 6.2 mi Variable 2.3 mph - N/A   Scattered Clouds
9:00 AM 68.0 °F 60.8 °F 78% 29.98 in 6.2 mi Variable 2.3 mph - N/A   Scattered Clouds
10:00 AM 69.8 °F 60.8 °F 73% 29.95 in 6.2 mi SE 9.2 mph - N/A   Scattered Clouds
11:00 AM 71 °F 62 °F 65% 29.96 in 12 mi SE 12.7 mph - -   Partly Cloudy
11:00 AM 71.6 °F 60.8 °F 69% 29.95 in 6.2 mi SE 12.7 mph - N/A   Scattered Clouds
12:00 PM 71.6 °F 59.0 °F 64% 29.95 in 6.2 mi ESE 13.8 mph - N/A   Partly Cloudy
1:00 PM 73.4 °F 60.8 °F 65% 29.95 in 6.2 mi SE 17.3 mph - N/A   Partly Cloudy
2:00 PM 72 °F 60 °F 57% 29.94 in 12 mi ESE 18.4 mph - -   Partly Cloudy
2:00 PM 73.4 °F 60.8 °F 65% 29.92 in 6.2 mi ESE 18.4 mph - N/A   Partly Cloudy
3:00 PM 71.6 °F 59.0 °F 64% 29.92 in 6.2 mi ESE 18.4 mph - N/A   Partly Cloudy
4:00 PM 69.8 °F 57.2 °F 64% 29.92 in 6.2 mi ESE 16.1 mph - N/A   Mostly Cloudy
5:00 PM 68 °F 58 °F 61% 29.91 in 12 mi ESE 20.7 mph - -   Mostly Cloudy
5:00 PM 68.0 °F 57.2 °F 68% 29.89 in 6.2 mi ESE 19.6 mph - N/A   Mostly Cloudy
6:00 PM 66.2 °F 59.0 °F 78% 29.92 in 6.2 mi ESE 18.4 mph - N/A   Mostly Cloudy
7:00 PM 66.2 °F 59.0 °F 78% 29.95 in 6.2 mi ESE 17.3 mph - N/A Rain Light Rain
8:00 PM 65 °F 60 °F 79% 29.99 in 12 mi ESE 13.8 mph - - Rain Light Rain
8:00 PM 64.4 °F 60.8 °F 88% 29.98 in 6.2 mi East 10.4 mph - N/A   Mostly Cloudy
9:00 PM 64.4 °F 60.8 °F 88% 29.98 in 6.2 mi ESE 10.4 mph - N/A   Partly Cloudy
10:00 PM 64.4 °F 60.8 °F 88% 29.98 in 6.2 mi East 11.5 mph - N/A   Drizzle
11:00 PM 64.4 °F 59.0 °F 83% 29.98 in 6.2 mi East 8.1 mph - N/A Rain Light Rain